Time,TemperatureF,DewpointF,PressureIn,WindDirection,WindDirectionDegrees,WindSpeedMPH,WindSpeedGustMPH,Humidity,HourlyPrecipIn,Conditions,Clouds,dailyrainin,SoftwareType,DateUTC
2013-07-13 00:00:00,79.0,58.2,29.65,SE,138,0.0,0.0,49,0.00,,,0.08,Wunderground v.1.15,2013-07-13 06:00:00,
2013-07-13 00:05:00,78.9,58.1,29.63,SE,138,0.0,0.0,49,0.00,,,0.00,Wunderground v.1.15,2013-07-13 06:05:00,
2013-07-13 00:15:00,78.7,57.9,29.63,SE,137,0.0,0.0,49,0.00,,,0.00,Wunderground v.1.15,2013-07-13 06:15:00,
2013-07-13 00:20:00,78.7,57.9,29.63,SE,138,0.0,0.0,49,0.00,,,0.00,Wunderground v.1.15,2013-07-13 06:20:00,
2013-07-13 00:25:00,78.5,58.3,29.63,SE,137,0.0,0.0,50,0.00,,,0.00,Wunderground v.1.15,2013-07-13 06:25:00,
2013-07-13 00:30:00,78.3,58.1,29.64,SE,138,0.0,0.0,50,0.00,,,0.00,Wunderground v.1.15,2013-07-13 06:30:00,
2013-07-13 00:40:00,77.9,57.8,29.64,SE,137,0.0,0.0,50,0.00,,,0.00,Wunderground v.1.15,2013-07-13 06:40:00,
2013-07-13 00:45:00,77.7,58.1,29.64,SE,138,0.0,0.0,51,0.00,,,0.00,Wunderground v.1.15,2013-07-13 06:45:00,
2013-07-13 00:50:00,77.5,57.9,29.64,SE,137,0.0,0.0,51,0.00,,,0.00,Wunderground v.1.15,2013-07-13 06:50:00,
2013-07-13 00:55:00,77.3,57.8,29.64,SE,138,0.0,0.0,51,0.00,,,0.00,Wunderground v.1.15,2013-07-13 06:55:00,
2013-07-13 01:00:00,77.1,57.6,29.64,SE,138,0.0,0.0,51,0.00,,,0.00,Wunderground v.1.15,2013-07-13 07:00:00,
2013-07-13 01:05:00,76.9,57.9,29.67,SE,138,0.0,0.0,52,0.00,,,0.00,Wunderground v.1.15,2013-07-13 07:05:00,
2013-07-13 01:15:00,76.6,58.2,29.67,SE,138,0.0,0.0,53,0.00,,,0.00,Wunderground v.1.15,2013-07-13 07:15:00,
2013-07-13 01:20:00,76.4,58.0,29.68,SE,138,0.0,0.0,53,0.00,,,0.00,Wunderground v.1.15,2013-07-13 07:20:00,
2013-07-13 01:25:00,76.2,58.3,29.68,SE,138,0.0,0.0,54,0.00,,,0.00,Wunderground v.1.15,2013-07-13 07:25:00,
2013-07-13 01:30:00,76.1,58.2,29.68,SE,137,0.0,0.0,54,0.00,,,0.00,Wunderground v.1.15,2013-07-13 07:30:00,
2013-07-13 01:35:00,76.0,58.7,29.68,SE,137,0.0,0.0,55,0.00,,,0.00,Wunderground v.1.15,2013-07-13 07:35:00,
2013-07-13 01:40:00,75.9,59.1,29.68,SE,138,0.0,0.0,56,0.00,,,0.00,Wunderground v.1.15,2013-07-13 07:40:00,
2013-07-13 01:50:00,75.4,58.1,29.68,SE,138,0.0,0.0,55,0.00,,,0.00,Wunderground v.1.15,2013-07-13 07:50:00,
2013-07-13 01:55:00,75.2,57.9,29.68,SE,138,0.0,0.0,55,0.00,,,0.00,Wunderground v.1.15,2013-07-13 07:55:00,
2013-07-13 02:00:00,75.0,58.2,29.67,SE,138,0.0,0.0,56,0.00,,,0.00,Wunderground v.1.15,2013-07-13 08:00:00,
2013-07-13 02:05:00,74.8,58.1,29.72,SE,137,0.0,0.0,56,0.00,,,0.00,Wunderground v.1.15,2013-07-13 08:05:00,
2013-07-13 02:15:00,74.4,58.2,29.72,SE,137,0.0,0.0,57,0.00,,,0.00,Wunderground v.1.15,2013-07-13 08:15:00,
2013-07-13 02:20:00,74.3,58.1,29.73,SE,137,0.0,0.0,57,0.00,,,0.00,Wunderground v.1.15,2013-07-13 08:20:00,
2013-07-13 02:25:00,74.2,58.0,29.73,SE,137,0.0,0.0,57,0.00,,,0.00,Wunderground v.1.15,2013-07-13 08:25:00,
2013-07-13 02:30:00,74.0,57.8,29.73,SE,137,0.0,0.0,57,0.00,,,0.00,Wunderground v.1.15,2013-07-13 08:30:00,
2013-07-13 02:35:00,73.9,58.2,29.73,SE,137,0.0,0.0,58,0.00,,,0.00,Wunderground v.1.15,2013-07-13 08:35:00,
2013-07-13 02:40:00,73.7,58.0,29.73,SE,137,0.0,0.0,58,0.00,,,0.00,Wunderground v.1.15,2013-07-13 08:40:00,
2013-07-13 02:45:00,73.4,58.2,29.73,North,10,0.0,0.0,59,0.00,,,0.00,Wunderground v.1.15,2013-07-13 08:45:00,
2013-07-13 02:50:00,73.1,58.8,29.73,NNW,340,0.0,0.0,61,0.00,,,0.00,Wunderground v.1.15,2013-07-13 08:50:00,
2013-07-13 02:55:00,72.8,59.0,29.73,NNW,336,0.0,0.0,62,0.00,,,0.00,Wunderground v.1.15,2013-07-13 08:55:00,
2013-07-13 03:00:00,72.6,59.3,29.72,North,355,0.0,0.0,63,0.00,,,0.00,Wunderground v.1.15,2013-07-13 09:00:00,
2013-07-13 03:05:00,72.3,59.0,29.68,North,350,0.0,0.0,63,0.00,,,0.00,Wunderground v.1.15,2013-07-13 09:05:00,
2013-07-13 03:15:00,72.0,59.2,29.68,North,350,0.0,0.0,64,0.00,,,0.00,Wunderground v.1.15,2013-07-13 09:15:00,
2013-07-13 03:25:00,71.5,59.1,29.68,NNW,346,0.0,0.0,65,0.00,,,0.00,Wunderground v.1.15,2013-07-13 09:25:00,
2013-07-13 03:30:00,71.3,58.9,29.69,NNW,344,0.0,0.0,65,0.00,,,0.00,Wunderground v.1.15,2013-07-13 09:30:00,
2013-07-13 03:35:00,71.1,58.7,29.69,NNW,342,0.0,0.0,65,0.00,,,0.00,Wunderground v.1.15,2013-07-13 09:35:00,
2013-07-13 03:40:00,71.0,58.6,29.69,North,355,0.0,0.0,65,0.00,,,0.00,Wunderground v.1.15,2013-07-13 09:40:00,
2013-07-13 03:45:00,71.0,58.2,29.68,NNW,331,0.0,0.0,64,0.00,,,0.00,Wunderground v.1.15,2013-07-13 09:45:00,
2013-07-13 03:50:00,71.1,58.3,29.68,NW,310,0.0,0.0,64,0.00,,,0.00,Wunderground v.1.15,2013-07-13 09:50:00,
2013-07-13 04:00:00,71.3,58.1,29.68,NW,325,0.0,0.0,63,0.00,,,0.00,Wunderground v.1.15,2013-07-13 10:00:00,
2013-07-13 04:10:00,71.3,58.1,29.68,NNW,348,0.0,0.0,63,0.00,,,0.00,Wunderground v.1.15,2013-07-13 10:10:00,
2013-07-13 04:15:00,71.3,58.1,29.68,NW,325,0.0,0.0,63,0.00,,,0.00,Wunderground v.1.15,2013-07-13 10:15:00,
2013-07-13 04:20:00,71.3,58.1,29.67,NNW,331,0.0,0.0,63,0.00,,,0.00,Wunderground v.1.15,2013-07-13 10:20:00,
2013-07-13 04:25:00,71.2,58.0,29.67,NNW,336,0.0,0.0,63,0.00,,,0.00,Wunderground v.1.15,2013-07-13 10:25:00,
2013-07-13 04:30:00,71.1,58.3,29.67,NNW,336,0.0,0.0,64,0.00,,,0.00,Wunderground v.1.15,2013-07-13 10:30:00,
2013-07-13 04:35:00,71.0,58.2,29.67,North,351,0.0,0.0,64,0.00,,,0.00,Wunderground v.1.15,2013-07-13 10:35:00,
2013-07-13 04:40:00,70.8,58.0,29.68,North,355,0.0,0.0,64,0.00,,,0.00,Wunderground v.1.15,2013-07-13 10:40:00,
2013-07-13 04:45:00,70.7,58.4,29.68,North,355,0.0,0.0,65,0.00,,,0.00,Wunderground v.1.15,2013-07-13 10:45:00,
2013-07-13 04:50:00,70.5,58.2,29.68,NNW,348,0.0,0.0,65,0.00,,,0.00,Wunderground v.1.15,2013-07-13 10:50:00,
2013-07-13 04:55:00,70.3,58.0,29.69,North,350,0.0,0.0,65,0.00,,,0.00,Wunderground v.1.15,2013-07-13 10:55:00,
2013-07-13 05:05:00,69.9,58.4,29.69,NNW,341,0.0,0.0,67,0.00,,,0.00,Wunderground v.1.15,2013-07-13 11:05:00,
2013-07-13 05:15:00,69.8,58.3,29.68,NNW,341,0.0,0.0,67,0.00,,,0.00,Wunderground v.1.15,2013-07-13 11:15:00,
2013-07-13 05:20:00,69.9,58.4,29.69,North,355,0.0,1.0,67,0.00,,,0.00,Wunderground v.1.15,2013-07-13 11:20:00,
2013-07-13 05:25:00,69.9,58.4,29.69,North,350,0.0,1.0,67,0.00,,,0.00,Wunderground v.1.15,2013-07-13 11:25:00,
2013-07-13 05:30:00,69.9,58.4,29.69,NNW,340,0.0,0.0,67,0.00,,,0.00,Wunderground v.1.15,2013-07-13 11:30:00,
2013-07-13 05:40:00,69.9,58.4,29.69,NNW,338,0.0,0.0,67,0.00,,,0.00,Wunderground v.1.15,2013-07-13 11:40:00,
2013-07-13 05:45:00,69.9,58.4,29.69,NNW,338,0.0,0.0,67,0.00,,,0.00,Wunderground v.1.15,2013-07-13 11:45:00,
2013-07-13 05:50:00,69.9,58.4,29.69,NNW,340,0.0,0.0,67,0.00,,,0.00,Wunderground v.1.15,2013-07-13 11:50:00,
2013-07-13 05:55:00,69.9,58.4,29.69,NNW,340,0.0,0.0,67,0.00,,,0.00,Wunderground v.1.15,2013-07-13 11:55:00,
2013-07-13 06:00:00,69.9,58.4,29.69,NNW,340,0.0,0.0,67,0.00,,,0.00,Wunderground v.1.15,2013-07-13 12:00:00,
2013-07-13 06:05:00,69.8,58.3,29.70,NNW,339,0.0,0.0,67,0.00,,,0.00,Wunderground v.1.15,2013-07-13 12:05:00,
2013-07-13 06:15:00,69.6,57.7,29.70,NNW,338,0.0,0.0,66,0.00,,,0.00,Wunderground v.1.15,2013-07-13 12:15:00,
2013-07-13 06:20:00,69.5,58.1,29.71,NNW,337,0.0,0.0,67,0.00,,,0.00,Wunderground v.1.15,2013-07-13 12:20:00,
2013-07-13 06:25:00,69.4,58.0,29.72,NNW,338,0.0,0.0,67,0.00,,,0.00,Wunderground v.1.15,2013-07-13 12:25:00,
2013-07-13 06:30:00,69.3,57.9,29.72,NNW,338,0.0,0.0,67,0.00,,,0.00,Wunderground v.1.15,2013-07-13 12:30:00,
2013-07-13 06:35:00,69.3,57.9,29.72,NNW,338,0.0,0.0,67,0.00,,,0.00,Wunderground v.1.15,2013-07-13 12:35:00,
2013-07-13 06:40:00,69.2,57.8,29.72,NNW,338,0.0,0.0,67,0.00,,,0.00,Wunderground v.1.15,2013-07-13 12:40:00,
2013-07-13 06:45:00,69.3,58.3,29.72,NNW,338,0.0,0.0,68,0.00,,,0.00,Wunderground v.1.15,2013-07-13 12:45:00,
2013-07-13 06:50:00,69.3,57.9,29.72,NNW,338,0.0,0.0,67,0.00,,,0.00,Wunderground v.1.15,2013-07-13 12:50:00,
2013-07-13 06:55:00,69.4,58.4,29.72,NNW,338,0.0,0.0,68,0.00,,,0.00,Wunderground v.1.15,2013-07-13 12:55:00,
2013-07-13 07:00:00,69.4,58.4,29.72,NNW,337,0.0,0.0,68,0.00,,,0.00,Wunderground v.1.15,2013-07-13 13:00:00,
2013-07-13 07:05:00,69.6,58.2,29.72,NNW,338,0.0,0.0,67,0.00,,,0.00,Wunderground v.1.15,2013-07-13 13:05:00,
2013-07-13 07:15:00,70.2,58.7,29.73,NNW,338,0.0,0.0,67,0.00,,,0.00,Wunderground v.1.15,2013-07-13 13:15:00,
2013-07-13 07:20:00,70.5,58.6,29.72,NNW,338,0.0,0.0,66,0.00,,,0.00,Wunderground v.1.15,2013-07-13 13:20:00,
2013-07-13 07:25:00,71.0,59.1,29.72,NNW,338,0.0,0.0,66,0.00,,,0.00,Wunderground v.1.15,2013-07-13 13:25:00,
2013-07-13 07:35:00,72.1,59.2,29.73,NNW,337,0.0,0.0,64,0.00,,,0.00,Wunderground v.1.15,2013-07-13 13:35:00,
2013-07-13 07:40:00,72.7,59.4,29.72,NNW,337,0.0,0.0,63,0.00,,,0.00,Wunderground v.1.15,2013-07-13 13:40:00,
2013-07-13 07:45:00,73.3,59.5,29.72,NNW,338,0.0,0.0,62,0.00,,,0.00,Wunderground v.1.15,2013-07-13 13:45:00,
2013-07-13 07:50:00,73.9,59.6,29.73,NNW,338,0.0,0.0,61,0.00,,,0.00,Wunderground v.1.15,2013-07-13 13:50:00,
2013-07-13 07:55:00,74.5,59.2,29.72,NNW,338,0.0,0.0,59,0.00,,,0.00,Wunderground v.1.15,2013-07-13 13:55:00,
2013-07-13 08:00:00,75.3,60.0,29.71,NNW,338,0.0,0.0,59,0.00,,,0.00,Wunderground v.1.15,2013-07-13 14:00:00,
2013-07-13 08:05:00,75.9,60.1,29.72,NNW,337,0.0,0.0,58,0.00,,,0.00,Wunderground v.1.15,2013-07-13 14:05:00,
2013-07-13 08:15:00,77.1,60.2,29.72,NNW,337,0.0,0.0,56,0.00,,,0.00,Wunderground v.1.15,2013-07-13 14:15:00,
2013-07-13 08:25:00,78.4,59.9,29.72,NNW,338,0.0,0.0,53,0.00,,,0.00,Wunderground v.1.15,2013-07-13 14:25:00,
2013-07-13 08:30:00,79.0,60.4,29.72,NNW,338,0.0,0.0,53,0.00,,,0.00,Wunderground v.1.15,2013-07-13 14:30:00,
2013-07-13 08:35:00,79.6,59.9,29.72,NNW,338,0.0,0.0,51,0.00,,,0.00,Wunderground v.1.15,2013-07-13 14:35:00,
2013-07-13 08:45:00,80.9,59.9,29.71,NNW,338,0.0,0.0,49,0.00,,,0.00,Wunderground v.1.15,2013-07-13 14:45:00,
2013-07-13 08:50:00,81.5,60.5,29.71,NNW,338,0.0,0.0,49,0.00,,,0.00,Wunderground v.1.15,2013-07-13 14:50:00,
2013-07-13 08:55:00,82.1,60.5,29.71,NNW,338,0.0,0.0,48,0.00,,,0.00,Wunderground v.1.15,2013-07-13 14:55:00,
2013-07-13 09:00:00,82.7,60.4,29.70,NNW,340,0.0,0.0,47,0.00,,,0.00,Wunderground v.1.15,2013-07-13 15:00:00,
2013-07-13 09:05:00,83.1,61.4,29.72,NNW,340,0.0,0.0,48,0.00,,,0.00,Wunderground v.1.15,2013-07-13 15:05:00,
2013-07-13 09:15:00,83.9,59.7,29.72,NNW,346,0.0,0.0,44,0.00,,,0.00,Wunderground v.1.15,2013-07-13 15:15:00,
2013-07-13 09:20:00,84.3,60.0,29.71,North,9,0.0,0.0,44,0.00,,,0.00,Wunderground v.1.15,2013-07-13 15:20:00,
2013-07-13 09:25:00,84.7,60.4,29.71,North,5,0.0,0.0,44,0.00,,,0.00,Wunderground v.1.15,2013-07-13 15:25:00,
2013-07-13 09:30:00,84.9,60.6,29.71,West,269,0.0,0.0,44,0.00,,,0.00,Wunderground v.1.15,2013-07-13 15:30:00,
2013-07-13 09:35:00,85.2,60.8,29.70,West,267,0.0,0.0,44,0.00,,,0.00,Wunderground v.1.15,2013-07-13 15:35:00,
2013-07-13 09:40:00,85.5,60.4,29.71,West,265,0.0,0.0,43,0.00,,,0.00,Wunderground v.1.15,2013-07-13 15:40:00,
2013-07-13 09:45:00,85.9,60.1,29.71,West,261,0.0,0.0,42,0.00,,,0.00,Wunderground v.1.15,2013-07-13 15:45:00,
2013-07-13 09:50:00,86.5,60.0,29.70,West,260,0.0,0.0,41,0.00,,,0.00,Wunderground v.1.15,2013-07-13 15:50:00,
2013-07-13 09:55:00,87.1,61.2,29.69,West,268,0.0,0.0,42,0.00,,,0.00,Wunderground v.1.15,2013-07-13 15:55:00,
2013-07-13 10:05:00,87.8,59.0,29.70,SE,140,0.0,1.0,38,0.00,,,0.00,Wunderground v.1.15,2013-07-13 16:05:00,
2013-07-13 10:15:00,88.5,60.4,29.70,WNW,298,0.0,0.0,39,0.00,,,0.00,Wunderground v.1.15,2013-07-13 16:15:00,
2013-07-13 10:20:00,88.9,60.7,29.70,WNW,298,0.0,0.0,39,0.00,,,0.00,Wunderground v.1.15,2013-07-13 16:20:00,
2013-07-13 10:25:00,89.1,60.2,29.70,WNW,298,0.0,0.0,38,0.00,,,0.00,Wunderground v.1.15,2013-07-13 16:25:00,
2013-07-13 10:30:00,89.5,59.0,29.70,WNW,299,0.0,0.0,36,0.00,,,0.00,Wunderground v.1.15,2013-07-13 16:30:00,
2013-07-13 10:40:00,90.5,59.9,29.69,WNW,303,0.0,0.0,36,0.00,,,0.00,Wunderground v.1.15,2013-07-13 16:40:00,
2013-07-13 10:45:00,90.9,61.0,29.69,NW,306,0.0,0.0,37,0.00,,,0.00,Wunderground v.1.15,2013-07-13 16:45:00,
2013-07-13 10:50:00,91.2,59.7,29.69,NW,306,0.0,0.0,35,0.00,,,0.00,Wunderground v.1.15,2013-07-13 16:50:00,
2013-07-13 10:55:00,91.8,59.4,29.68,NW,306,0.0,0.0,34,0.00,,,0.00,Wunderground v.1.15,2013-07-13 16:55:00,
2013-07-13 11:00:00,92.6,60.1,29.68,NNW,327,0.0,0.0,34,0.00,,,0.00,Wunderground v.1.15,2013-07-13 17:00:00,
2013-07-13 11:05:00,93.0,60.5,29.68,NNW,340,0.0,0.0,34,0.00,,,0.00,Wunderground v.1.15,2013-07-13 17:05:00,
2013-07-13 11:15:00,93.8,59.5,29.67,NNW,328,0.0,0.0,32,0.00,,,0.00,Wunderground v.1.15,2013-07-13 17:15:00,
2013-07-13 11:20:00,93.9,59.6,29.67,North,355,0.0,0.0,32,0.00,,,0.00,Wunderground v.1.15,2013-07-13 17:20:00,
2013-07-13 11:25:00,94.0,58.8,29.68,ESE,121,0.0,0.0,31,0.00,,,0.00,Wunderground v.1.15,2013-07-13 17:25:00,
2013-07-13 11:30:00,94.2,58.9,29.68,ESE,121,0.0,0.0,31,0.00,,,0.00,Wunderground v.1.15,2013-07-13 17:30:00,
2013-07-13 11:35:00,94.6,59.3,29.66,ESE,121,0.0,0.0,31,0.00,,,0.00,Wunderground v.1.15,2013-07-13 17:35:00,
2013-07-13 11:40:00,95.2,59.8,29.66,ENE,61,0.0,0.0,31,0.00,,,0.00,Wunderground v.1.15,2013-07-13 17:40:00,
2013-07-13 11:45:00,95.5,59.1,29.66,West,277,0.0,0.0,30,0.00,,,0.00,Wunderground v.1.15,2013-07-13 17:45:00,
2013-07-13 11:50:00,95.8,60.3,29.66,NW,326,0.0,0.0,31,0.00,,,0.00,Wunderground v.1.15,2013-07-13 17:50:00,
2013-07-13 12:00:00,95.8,59.4,29.66,WSW,240,1.0,1.0,30,0.00,,,0.00,Wunderground v.1.15,2013-07-13 18:00:00,
2013-07-13 12:05:00,96.1,58.7,29.66,SE,140,1.0,1.0,29,0.00,,,0.00,Wunderground v.1.15,2013-07-13 18:05:00,
2013-07-13 12:15:00,96.4,59.0,29.66,ESE,113,1.0,1.0,29,0.00,,,0.00,Wunderground v.1.15,2013-07-13 18:15:00,
2013-07-13 12:20:00,96.7,59.2,29.65,SSW,209,1.0,1.0,29,0.00,,,0.00,Wunderground v.1.15,2013-07-13 18:20:00,
2013-07-13 12:25:00,96.9,59.4,29.64,WSW,255,0.0,1.0,29,0.00,,,0.00,Wunderground v.1.15,2013-07-13 18:25:00,
2013-07-13 12:30:00,97.4,59.8,29.65,North,360,0.0,0.0,29,0.00,,,0.00,Wunderground v.1.15,2013-07-13 18:30:00,
2013-07-13 12:35:00,98.0,59.3,29.64,ESE,118,0.0,0.0,28,0.00,,,0.00,Wunderground v.1.15,2013-07-13 18:35:00,
2013-07-13 12:40:00,98.2,59.5,29.64,SE,142,1.0,1.0,28,0.00,,,0.00,Wunderground v.1.15,2013-07-13 18:40:00,
2013-07-13 12:45:00,98.2,60.5,29.63,SSE,152,1.0,1.0,29,0.00,,,0.00,Wunderground v.1.15,2013-07-13 18:45:00,
2013-07-13 12:55:00,98.2,59.5,29.64,ESE,113,0.0,1.0,28,0.00,,,0.00,Wunderground v.1.15,2013-07-13 18:55:00,
2013-07-13 13:00:00,98.4,59.7,29.64,East,96,0.0,0.0,28,0.00,,,0.00,Wunderground v.1.15,2013-07-13 19:00:00,
2013-07-13 13:05:00,98.8,60.0,29.63,ESE,119,0.0,0.0,28,0.00,,,0.00,Wunderground v.1.15,2013-07-13 19:05:00,
2013-07-13 13:15:00,100.2,59.1,29.63,ENE,67,0.0,0.0,26,0.00,,,0.00,Wunderground v.1.15,2013-07-13 19:15:00,
2013-07-13 13:25:00,100.1,59.0,29.62,NNE,13,0.0,0.0,26,0.00,,,0.00,Wunderground v.1.15,2013-07-13 19:25:00,
2013-07-13 13:35:00,100.4,58.2,29.62,East,82,0.0,0.0,25,0.00,,,0.00,Wunderground v.1.15,2013-07-13 19:35:00,
2013-07-13 13:40:00,100.1,60.1,29.61,North,355,0.0,0.0,27,0.00,,,0.00,Wunderground v.1.15,2013-07-13 19:40:00,
2013-07-13 13:45:00,99.6,59.7,29.62,SSE,148,0.0,0.0,27,0.00,,,0.00,Wunderground v.1.15,2013-07-13 19:45:00,
2013-07-13 13:50:00,99.4,58.5,29.61,SE,125,0.0,1.0,26,0.00,,,0.00,Wunderground v.1.15,2013-07-13 19:50:00,
2013-07-13 13:55:00,99.4,56.2,29.61,SE,145,0.0,1.0,24,0.00,,,0.00,Wunderground v.1.15,2013-07-13 19:55:00,
2013-07-13 14:00:00,99.1,56.0,29.61,SE,146,0.0,0.0,24,0.00,,,0.00,Wunderground v.1.15,2013-07-13 20:00:00,
2013-07-13 14:05:00,99.2,56.1,29.61,East,83,0.0,0.0,24,0.00,,,0.00,Wunderground v.1.15,2013-07-13 20:05:00,
2013-07-13 14:15:00,99.5,58.5,29.61,NE,56,1.0,2.0,26,0.00,,,0.00,Wunderground v.1.15,2013-07-13 20:15:00,
2013-07-13 14:20:00,99.4,57.4,29.61,South,174,0.0,0.0,25,0.00,,,0.00,Wunderground v.1.15,2013-07-13 20:20:00,
2013-07-13 14:25:00,99.6,56.4,29.61,SE,140,0.0,0.0,24,0.00,,,0.00,Wunderground v.1.15,2013-07-13 20:25:00,
2013-07-13 14:30:00,100.1,59.0,29.60,SE,140,0.0,0.0,26,0.00,,,0.00,Wunderground v.1.15,2013-07-13 20:30:00,
2013-07-13 14:35:00,100.4,58.2,29.61,WSW,244,0.0,0.0,25,0.00,,,0.00,Wunderground v.1.15,2013-07-13 20:35:00,
2013-07-13 14:45:00,101.0,58.7,29.60,SE,146,0.0,0.0,25,0.00,,,0.00,Wunderground v.1.15,2013-07-13 20:45:00,
2013-07-13 14:50:00,100.8,57.4,29.60,South,169,0.0,0.0,24,0.00,,,0.00,Wunderground v.1.15,2013-07-13 20:50:00,
2013-07-13 14:55:00,100.4,58.2,29.60,SSW,194,0.0,0.0,25,0.00,,,0.00,Wunderground v.1.15,2013-07-13 20:55:00,
2013-07-13 15:00:00,100.1,56.8,29.60,ENE,63,0.0,0.0,24,0.00,,,0.00,Wunderground v.1.15,2013-07-13 21:00:00,
2013-07-13 15:05:00,99.4,56.2,29.61,SSW,211,0.0,0.0,24,0.00,,,0.00,Wunderground v.1.15,2013-07-13 21:05:00,
2013-07-13 15:15:00,99.7,55.3,29.61,SE,141,0.0,1.0,23,0.00,,,0.00,Wunderground v.1.15,2013-07-13 21:15:00,
2013-07-13 15:20:00,100.3,55.8,29.61,SE,130,0.0,0.0,23,0.00,,,0.00,Wunderground v.1.15,2013-07-13 21:20:00,
2013-07-13 15:25:00,100.8,57.4,29.60,ENE,57,0.0,0.0,24,0.00,,,0.00,Wunderground v.1.15,2013-07-13 21:25:00,
2013-07-13 15:35:00,101.4,57.9,29.59,NW,304,0.0,0.0,24,0.00,,,0.00,Wunderground v.1.15,2013-07-13 21:35:00,
2013-07-13 15:40:00,101.2,56.6,29.59,WNW,303,0.0,0.0,23,0.00,,,0.00,Wunderground v.1.15,2013-07-13 21:40:00,
2013-07-13 15:45:00,100.5,54.7,29.59,NNE,31,0.0,0.0,22,0.00,,,0.00,Wunderground v.1.15,2013-07-13 21:45:00,
2013-07-13 15:50:00,99.8,55.4,29.60,NE,53,0.0,0.0,23,0.00,,,0.00,Wunderground v.1.15,2013-07-13 21:50:00,
2013-07-13 15:55:00,99.7,55.3,29.60,NE,36,0.0,0.0,23,0.00,,,0.00,Wunderground v.1.15,2013-07-13 21:55:00,
2013-07-13 16:00:00,99.2,54.9,29.60,ENE,68,0.0,0.0,23,0.00,,,0.00,Wunderground v.1.15,2013-07-13 22:00:00,
2013-07-13 16:05:00,99.2,53.7,29.60,ENE,68,0.0,0.0,22,0.00,,,0.00,Wunderground v.1.15,2013-07-13 22:05:00,
2013-07-13 16:15:00,99.3,53.8,29.59,SE,140,0.0,0.0,22,0.00,,,0.00,Wunderground v.1.15,2013-07-13 22:15:00,
2013-07-13 16:20:00,99.6,54.0,29.59,SE,134,0.0,0.0,22,0.00,,,0.00,Wunderground v.1.15,2013-07-13 22:20:00,
2013-07-13 16:25:00,99.8,54.2,29.59,SE,134,0.0,0.0,22,0.00,,,0.00,Wunderground v.1.15,2013-07-13 22:25:00,
2013-07-13 16:30:00,99.8,56.6,29.58,NNE,16,0.0,0.0,24,0.00,,,0.00,Wunderground v.1.15,2013-07-13 22:30:00,
2013-07-13 16:40:00,99.9,55.5,29.58,NW,306,0.0,0.0,23,0.00,,,0.00,Wunderground v.1.15,2013-07-13 22:40:00,
2013-07-13 16:50:00,100.1,55.6,29.58,ESE,123,0.0,0.0,23,0.00,,,0.00,Wunderground v.1.15,2013-07-13 22:50:00,
2013-07-13 16:55:00,100.0,55.6,29.57,ENE,63,0.0,0.0,23,0.00,,,0.00,Wunderground v.1.15,2013-07-13 22:55:00,
2013-07-13 17:00:00,100.3,55.8,29.57,NE,46,0.0,0.0,23,0.00,,,0.00,Wunderground v.1.15,2013-07-13 23:00:00,
2013-07-13 17:05:00,100.4,54.7,29.58,North,11,0.0,0.0,22,0.00,,,0.00,Wunderground v.1.15,2013-07-13 23:05:00,
2013-07-13 17:15:00,99.9,55.5,29.57,North,351,0.0,0.0,23,0.00,,,0.00,Wunderground v.1.15,2013-07-13 23:15:00,
2013-07-13 17:20:00,99.8,55.4,29.57,North,351,0.0,0.0,23,0.00,,,0.00,Wunderground v.1.15,2013-07-13 23:20:00,
2013-07-13 17:25:00,99.6,55.2,29.57,WNW,302,0.0,0.0,23,0.00,,,0.00,Wunderground v.1.15,2013-07-13 23:25:00,
2013-07-13 17:30:00,99.4,55.1,29.57,WNW,303,0.0,0.0,23,0.00,,,0.00,Wunderground v.1.15,2013-07-13 23:30:00,
2013-07-13 17:35:00,99.1,53.6,29.57,SW,227,0.0,0.0,22,0.00,,,0.00,Wunderground v.1.15,2013-07-13 23:35:00,
2013-07-13 17:40:00,98.9,54.6,29.57,SW,218,0.0,0.0,23,0.00,,,0.00,Wunderground v.1.15,2013-07-13 23:40:00,
2013-07-13 17:45:00,98.9,53.4,29.56,NW,326,0.0,0.0,22,0.00,,,0.00,Wunderground v.1.15,2013-07-13 23:45:00,
2013-07-13 17:50:00,98.9,54.6,29.56,SE,146,0.0,1.0,23,0.00,,,0.00,Wunderground v.1.15,2013-07-13 23:50:00,
2013-07-13 17:55:00,98.9,54.6,29.56,ESE,111,1.0,1.0,23,0.00,,,0.00,Wunderground v.1.15,2013-07-13 23:55:00,
2013-07-13 18:00:00,98.7,53.3,29.56,East,93,1.0,1.0,22,0.00,,,0.00,Wunderground v.1.15,2013-07-14 00:00:00,
2013-07-13 18:05:00,98.6,54.4,29.56,SE,136,0.0,1.0,23,0.00,,,0.00,Wunderground v.1.15,2013-07-14 00:05:00,
2013-07-13 18:15:00,98.1,52.8,29.56,SSE,158,0.0,0.0,22,0.00,,,0.00,Wunderground v.1.15,2013-07-14 00:15:00,
2013-07-13 18:20:00,97.6,54.7,29.57,ENE,70,0.0,0.0,24,0.00,,,0.00,Wunderground v.1.15,2013-07-14 00:20:00,
2013-07-13 18:30:00,97.0,54.2,29.57,East,99,0.0,0.0,24,0.00,,,0.00,Wunderground v.1.15,2013-07-14 00:30:00,
2013-07-13 18:35:00,96.8,54.1,29.57,SE,142,0.0,0.0,24,0.00,,,0.00,Wunderground v.1.15,2013-07-14 00:35:00,
2013-07-13 18:45:00,96.5,53.8,29.57,SE,138,0.0,0.0,24,0.00,,,0.00,Wunderground v.1.15,2013-07-14 00:45:00,
2013-07-13 18:50:00,96.3,52.5,29.57,NNE,32,0.0,0.0,23,0.00,,,0.00,Wunderground v.1.15,2013-07-14 00:50:00,
2013-07-13 18:55:00,96.2,53.6,29.57,East,93,0.0,1.0,24,0.00,,,0.00,Wunderground v.1.15,2013-07-14 00:55:00,
2013-07-13 19:05:00,96.2,52.4,29.56,ESE,122,0.0,0.0,23,0.00,,,0.00,Wunderground v.1.15,2013-07-14 01:05:00,
2013-07-13 19:15:00,95.9,52.1,29.56,East,97,0.0,1.0,23,0.00,,,0.00,Wunderground v.1.15,2013-07-14 01:15:00,
2013-07-13 19:20:00,95.7,53.1,29.56,ESE,110,0.0,0.0,24,0.00,,,0.00,Wunderground v.1.15,2013-07-14 01:20:00,
2013-07-13 19:25:00,95.5,53.0,29.56,ESE,103,0.0,0.0,24,0.00,,,0.00,Wunderground v.1.15,2013-07-14 01:25:00,
2013-07-13 19:35:00,95.1,52.6,29.56,SE,126,0.0,0.0,24,0.00,,,0.00,Wunderground v.1.15,2013-07-14 01:35:00,
2013-07-13 19:40:00,94.9,54.7,29.57,SE,146,1.0,1.0,26,0.00,,,0.00,Wunderground v.1.15,2013-07-14 01:40:00,
2013-07-13 19:45:00,94.7,55.5,29.57,East,91,0.0,1.0,27,0.00,,,0.00,Wunderground v.1.15,2013-07-14 01:45:00,
2013-07-13 19:50:00,94.4,55.3,29.58,ESE,111,0.0,0.0,27,0.00,,,0.00,Wunderground v.1.15,2013-07-14 01:50:00,
2013-07-13 19:55:00,94.2,55.1,29.58,ESE,110,0.0,0.0,27,0.00,,,0.00,Wunderground v.1.15,2013-07-14 01:55:00,
2013-07-13 20:05:00,93.7,53.6,29.55,East,99,0.0,0.0,26,0.00,,,0.00,Wunderground v.1.15,2013-07-14 02:05:00,
2013-07-13 20:15:00,93.3,55.3,29.55,East,99,0.0,0.0,28,0.00,,,0.00,Wunderground v.1.15,2013-07-14 02:15:00,
2013-07-13 20:20:00,93.1,53.1,29.55,East,99,0.0,0.0,26,0.00,,,0.00,Wunderground v.1.15,2013-07-14 02:20:00,
2013-07-13 20:25:00,92.8,52.9,29.56,East,99,0.0,0.0,26,0.00,,,0.00,Wunderground v.1.15,2013-07-14 02:25:00,
2013-07-13 20:30:00,92.4,51.5,29.56,East,99,0.0,0.0,25,0.00,,,0.00,Wunderground v.1.15,2013-07-14 02:30:00,
2013-07-13 20:35:00,92.1,51.2,29.57,East,99,0.0,0.0,25,0.00,,,0.00,Wunderground v.1.15,2013-07-14 02:35:00,
2013-07-13 20:40:00,91.8,51.0,29.57,East,99,0.0,0.0,25,0.00,,,0.00,Wunderground v.1.15,2013-07-14 02:40:00,
2013-07-13 20:45:00,91.5,50.7,29.57,East,99,0.0,0.0,25,0.00,,,0.00,Wunderground v.1.15,2013-07-14 02:45:00,
2013-07-13 20:50:00,91.2,50.5,29.57,East,99,0.0,0.0,25,0.00,,,0.00,Wunderground v.1.15,2013-07-14 02:50:00,
2013-07-13 20:55:00,90.9,50.2,29.57,East,99,0.0,0.0,25,0.00,,,0.00,Wunderground v.1.15,2013-07-14 02:55:00,
2013-07-13 21:00:00,90.5,49.9,29.57,East,99,0.0,0.0,25,0.00,,,0.00,Wunderground v.1.15,2013-07-14 03:00:00,
2013-07-13 21:05:00,90.2,50.7,29.56,East,99,0.0,0.0,26,0.00,,,0.00,Wunderground v.1.15,2013-07-14 03:05:00,
2013-07-13 21:15:00,89.6,50.2,29.56,East,99,0.0,0.0,26,0.00,,,0.00,Wunderground v.1.15,2013-07-14 03:15:00,
2013-07-13 21:20:00,89.3,49.9,29.58,East,99,0.0,0.0,26,0.00,,,0.00,Wunderground v.1.15,2013-07-14 03:20:00,
2013-07-13 21:25:00,89.0,49.7,29.58,East,99,0.0,0.0,26,0.00,,,0.00,Wunderground v.1.15,2013-07-14 03:25:00,
2013-07-13 21:30:00,88.6,49.3,29.58,East,99,0.0,0.0,26,0.00,,,0.00,Wunderground v.1.15,2013-07-14 03:30:00,
2013-07-13 21:35:00,88.4,50.2,29.59,East,100,0.0,0.0,27,0.00,,,0.00,Wunderground v.1.15,2013-07-14 03:35:00,
2013-07-13 21:40:00,88.1,49.9,29.59,East,100,0.0,0.0,27,0.00,,,0.00,Wunderground v.1.15,2013-07-14 03:40:00,
2013-07-13 21:45:00,87.9,49.7,29.59,East,99,0.0,0.0,27,0.00,,,0.00,Wunderground v.1.15,2013-07-14 03:45:00,
2013-07-13 21:50:00,87.7,50.6,29.59,East,100,0.0,0.0,28,0.00,,,0.00,Wunderground v.1.15,2013-07-14 03:50:00,
2013-07-13 21:55:00,87.4,50.3,29.60,East,100,0.0,0.0,28,0.00,,,0.00,Wunderground v.1.15,2013-07-14 03:55:00,
2013-07-13 22:00:00,87.1,50.0,29.60,East,99,0.0,0.0,28,0.00,,,0.00,Wunderground v.1.15,2013-07-14 04:00:00,
2013-07-13 22:05:00,86.9,49.9,29.58,East,100,0.0,0.0,28,0.00,,,0.00,Wunderground v.1.15,2013-07-14 04:05:00,
2013-07-13 22:10:00,86.7,50.6,29.58,East,99,0.0,0.0,29,0.00,,,0.00,Wunderground v.1.15,2013-07-14 04:10:00,
2013-07-13 22:20:00,86.3,51.2,29.59,East,100,0.0,0.0,30,0.00,,,0.00,Wunderground v.1.15,2013-07-14 04:20:00,
2013-07-13 22:25:00,86.1,51.0,29.59,East,99,0.0,0.0,30,0.00,,,0.00,Wunderground v.1.15,2013-07-14 04:25:00,
2013-07-13 22:35:00,85.7,50.7,29.59,East,100,0.0,0.0,30,0.00,,,0.00,Wunderground v.1.15,2013-07-14 04:35:00,
2013-07-13 22:40:00,85.5,51.4,29.59,East,100,0.0,0.0,31,0.00,,,0.00,Wunderground v.1.15,2013-07-14 04:40:00,
2013-07-13 22:45:00,85.3,50.4,29.60,East,100,0.0,0.0,30,0.00,,,0.00,Wunderground v.1.15,2013-07-14 04:45:00,
2013-07-13 22:50:00,85.1,50.2,29.60,East,100,0.0,0.0,30,0.00,,,0.00,Wunderground v.1.15,2013-07-14 04:50:00,
2013-07-13 22:55:00,84.8,49.9,29.60,East,99,0.0,0.0,30,0.00,,,0.00,Wunderground v.1.15,2013-07-14 04:55:00,
2013-07-13 23:00:00,84.5,48.8,29.60,East,100,0.0,0.0,29,0.00,,,0.00,Wunderground v.1.15,2013-07-14 05:00:00,
2013-07-13 23:05:00,84.3,48.6,29.59,East,99,0.0,0.0,29,0.00,,,0.00,Wunderground v.1.15,2013-07-14 05:05:00,
2013-07-13 23:15:00,84.1,48.4,29.59,East,100,0.0,0.0,29,0.00,,,0.00,Wunderground v.1.15,2013-07-14 05:15:00,
2013-07-13 23:20:00,84.0,48.3,29.60,East,100,0.0,0.0,29,0.00,,,0.00,Wunderground v.1.15,2013-07-14 05:20:00,
2013-07-13 23:30:00,83.8,50.8,29.60,East,100,0.0,0.0,32,0.00,,,0.00,Wunderground v.1.15,2013-07-14 05:30:00,
2013-07-13 23:35:00,83.6,48.9,29.60,East,100,0.0,0.0,30,0.00,,,0.00,Wunderground v.1.15,2013-07-14 05:35:00,
2013-07-13 23:40:00,83.4,48.7,29.61,East,99,0.0,0.0,30,0.00,,,0.00,Wunderground v.1.15,2013-07-14 05:40:00,
2013-07-13 23:45:00,83.2,49.4,29.61,North,11,0.0,0.0,31,0.00,,,0.00,Wunderground v.1.15,2013-07-14 05:45:00,
2013-07-13 23:50:00,83.0,50.1,29.61,North,11,0.0,0.0,32,0.00,,,0.00,Wunderground v.1.15,2013-07-14 05:50:00,